Location: Unspecified
(40.7945°N, 111.1337°W)
Time: 20:09:23
(UTC-06:00)

CZ-3 Stage 3 - Pass Details

Date: 01 June 2019
Orbit: 499 x 34693 km, 30.5° (Epoch: 23 June)

Event Time Altitude Azimuth Distance (km) Brightness Sun altitude
Exits shadow 00:15:06 - 230° (SW) 3,104 5.4 -25.3°
Reaches altitude 10° 00:15:11 10° 230° (SW) 3,076 5.4 -25.3°
Maximum altitude 00:22:21 52° 154° (SSE) 3,009 5.0 -25.7°
Drops below altitude 10° 08:10:54 10° 147° (SSE) 29,244 10.9 23.1°
Sets 08:59:48 0° 147° (SSE) 22,890 10.4 32.3°
